TimeEDT,TemperatureF,Dew PointF,Humidity,Sea Level PressureIn,VisibilityMPH,Wind Direction,Wind SpeedMPH,Gust SpeedMPH,PrecipitationIn,Events,Conditions,WindDirDegrees,DateUTC
12:54 AM,45.0,43.0,93,30.20,-9999.0,North,-9999.0,-,N/A,,Unknown,0,2011-10-11 04:54:00
1:54 AM,43.0,42.1,97,30.22,-9999.0,North,-9999.0,-,N/A,,Unknown,0,2011-10-11 05:54:00
2:54 AM,42.1,41.0,96,30.22,-9999.0,North,-9999.0,-,N/A,,Unknown,0,2011-10-11 06:54:00
3:54 AM,41.0,39.9,96,30.21,-9999.0,North,-9999.0,-,N/A,,Unknown,0,2011-10-11 07:54:00
4:54 AM,39.9,39.0,97,30.22,-9999.0,North,-9999.0,-,N/A,,Unknown,0,2011-10-11 08:54:00
5:54 AM,39.0,37.9,96,30.24,-9999.0,North,-9999.0,-,N/A,,Unknown,0,2011-10-11 09:54:00
6:54 AM,39.0,37.9,96,30.26,-9999.0,North,-9999.0,-,N/A,,Unknown,0,2011-10-11 10:54:00
7:54 AM,39.0,37.9,96,30.28,-9999.0,North,-9999.0,-,N/A,,Unknown,0,2011-10-11 11:54:00
8:54 AM,43.0,39.0,86,30.28,-9999.0,North,-9999.0,-,N/A,,Unknown,0,2011-10-11 12:54:00
9:54 AM,46.9,39.9,77,30.27,-9999.0,North,-9999.0,-,N/A,,Unknown,0,2011-10-11 13:54:00
10:54 AM,53.1,39.0,59,30.25,-9999.0,North,-9999.0,-,N/A,,Unknown,0,2011-10-11 14:54:00
11:54 AM,59.0,36.0,42,30.22,-9999.0,North,-9999.0,-,N/A,,Unknown,0,2011-10-11 15:54:00
12:54 PM,63.0,35.1,35,30.20,-9999.0,North,-9999.0,-,N/A,,Unknown,0,2011-10-11 16:54:00
1:54 PM,66.0,28.9,25,30.18,-9999.0,North,-9999.0,-,N/A,,Unknown,0,2011-10-11 17:54:00
2:54 PM,68.0,33.1,27,30.17,-9999.0,North,-9999.0,-,N/A,,Unknown,0,2011-10-11 18:54:00
3:54 PM,68.0,34.0,28,30.16,-9999.0,North,-9999.0,-,N/A,,Unknown,0,2011-10-11 19:54:00
4:54 PM,66.0,37.0,34,30.16,-9999.0,North,-9999.0,-,N/A,,Unknown,0,2011-10-11 20:54:00
5:54 PM,61.0,44.1,54,30.17,-9999.0,North,-9999.0,-,N/A,,Unknown,0,2011-10-11 21:54:00
6:54 PM,55.0,45.0,69,30.19,-9999.0,North,-9999.0,-,N/A,,Unknown,0,2011-10-11 22:54:00
7:54 PM,52.0,43.0,71,30.19,-9999.0,North,-9999.0,-,N/A,,Unknown,0,2011-10-11 23:54:00
8:54 PM,48.9,43.0,80,30.20,-9999.0,North,-9999.0,-,N/A,,Unknown,0,2011-10-12 00:54:00
9:54 PM,46.9,42.1,83,30.22,-9999.0,North,-9999.0,-,N/A,,Unknown,0,2011-10-12 01:54:00
10:54 PM,45.0,42.1,90,30.22,-9999.0,North,-9999.0,-,N/A,,Unknown,0,2011-10-12 02:54:00
11:54 PM,43.0,41.0,93,30.22,-9999.0,North,-9999.0,-,N/A,,Unknown,0,2011-10-12 03:54:00